Location: Cerezo de Arriba
(41.2389°N, 3.5585°W)
Time: 04:22:06
(UTC+00:00)

Cosmos 158 Rocket - Pass Details

Date: 19 May 2025
Orbit: 695 x 787 km, 74.0° (Epoch: 23 June)

Event Time Altitude Azimuth Distance (km) Brightness Sun altitude
Rises 20:28:30 0° 181° (S) 3,210 6.9 -10.1°
Reaches altitude 10° 20:30:55 10° 175° (S) 2,301 6.1 -10.4°
Maximum altitude 20:35:55 47° 103° (ESE) 1,031 4.3 -11.1°
Drops below altitude 10° 20:41:01 10° 31° (NNE) 2,351 6.6 -11.9°
Sets 20:43:30 0° 26° (NNE) 3,287 7.5 -12.2°
